Location: Borojevi?i
(45.0486°N, 16.2297°E)
Time: 17:51:42
(UTC+00:00)

Cosmos 1954 Rocket - Pass Details

Date: 08 August 2020
Orbit: 753 x 781 km, 74.1° (Epoch: 25 September)

Event Time Altitude Azimuth Distance (km) Brightness Sun altitude
Exits shadow 20:06:48 16° 186° (S) 1,943 5.7 -17.5°
Maximum altitude 20:11:01 65° 107° (ESE) 858 4.0 -18.0°
Drops below altitude 10° 20:16:18 10° 27° (NNE) 2,344 6.8 -18.6°
Sets 20:18:42 0° 24° (NNE) 3,275 7.6 -18.9°
